Hourly Weather Bolshie Iodkovichi

Today, 18 June, Friday

Time Temperature Precipitation Wind Pressure Humidity
00:00 +17°C° 0 mm 2 mps 757 mmHg 85%
01:00 +16°C° 0 mm 2 mps 757 mmHg 87%
02:00 +16°C° 0 mm 2 mps 757 mmHg 89%
03:00 +16°C° 0 mm 2 mps 757 mmHg 89%
04:00 +16°C° 0 mm 2 mps 757 mmHg 88%
05:00 +16°C° 0 mm 2 mps 757 mmHg 88%
06:00 +18°C° 0 mm 2 mps 757 mmHg 82%
07:00 +20°C° 0 mm 2 mps 757 mmHg 76%
08:00 +23°C° 0 mm 2 mps 757 mmHg 70%
09:00 +24°C° 0 mm 3 mps 757 mmHg 66%
10:00 +25°C° 0 mm 3 mps 757 mmHg 61%
11:00 +27°C° 0 mm 4 mps 757 mmHg 57%
12:00 +27°C° 0 mm 4 mps 756 mmHg 55%
13:00 +27°C° 0 mm 4 mps 756 mmHg 54%
14:00 +28°C° 0 mm 3 mps 756 mmHg 52%
15:00 +28°C° 0 mm 3 mps 756 mmHg 54%
16:00 +28°C° 0 mm 3 mps 756 mmHg 56%
17:00 +28°C° 0 mm 3 mps 755 mmHg 58%
18:00 +26°C° 0 mm 3 mps 755 mmHg 66%
19:00 +24°C° 0 mm 3 mps 755 mmHg 73%
20:00 +22°C° 0 mm 3 mps 755 mmHg 81%
21:00 +20°C° 0 mm 3 mps 755 mmHg 82%
22:00 +19°C° 0 mm 3 mps 756 mmHg 84%
23:00 +18°C° 0 mm 2 mps 756 mmHg 86%

Tomorrow, 19 June, Saturday

Time Temperature Precipitation Wind Pressure Humidity
00:00 +18°C° 0 mm 2 mps 756 mmHg 87%
01:00 +17°C° 0 mm 2 mps 756 mmHg 88%
02:00 +17°C° 0 mm 2 mps 756 mmHg 89%
03:00 +17°C° 0 mm 2 mps 755 mmHg 90%
04:00 +17°C° 0 mm 2 mps 755 mmHg 91%
05:00 +17°C° 0 mm 2 mps 755 mmHg 92%
06:00 +19°C° 0 mm 3 mps 755 mmHg 87%
07:00 +21°C° 0 mm 3 mps 755 mmHg 83%
08:00 +24°C° 0 mm 3 mps 755 mmHg 78%
09:00 +25°C° 0 mm 3 mps 755 mmHg 73%
10:00 +26°C° 0 mm 4 mps 755 mmHg 69%
11:00 +28°C° 0 mm 4 mps 755 mmHg 65%
12:00 +28°C° 0.1 mm 4 mps 755 mmHg 65%
13:00 +28°C° 0.1 mm 3 mps 755 mmHg 65%
14:00 +28°C° 0.1 mm 3 mps 754 mmHg 65%
15:00 +28°C° 0.3 mm 3 mps 754 mmHg 67%
16:00 +28°C° 0.3 mm 3 mps 754 mmHg 69%
17:00 +27°C° 0.3 mm 3 mps 754 mmHg 70%
18:00 +26°C° 0.2 mm 3 mps 754 mmHg 74%
19:00 +25°C° 0.2 mm 3 mps 754 mmHg 78%
20:00 +24°C° 0.2 mm 2 mps 753 mmHg 82%
21:00 +23°C° 0 mm 2 mps 753 mmHg 84%
22:00 +21°C° 0 mm 3 mps 753 mmHg 87%
23:00 +19°C° 0 mm 3 mps 753 mmHg 89%

Day after tomorrow, 20 June, Sunday

Time Temperature Precipitation Wind Pressure Humidity
00:00 +19°C° 0 mm 3 mps 754 mmHg 90%
01:00 +19°C° 0 mm 2 mps 754 mmHg 91%
02:00 +18°C° 0 mm 2 mps 754 mmHg 92%
03:00 +18°C° 0 mm 2 mps 753 mmHg 93%
04:00 +18°C° 0 mm 2 mps 753 mmHg 93%
05:00 +18°C° 0 mm 2 mps 753 mmHg 94%
06:00 +20°C° 0 mm 3 mps 753 mmHg 89%
07:00 +21°C° 0 mm 3 mps 753 mmHg 84%
08:00 +24°C° 0 mm 3 mps 753 mmHg 79%
09:00 +25°C° 0.1 mm 4 mps 753 mmHg 75%
10:00 +26°C° 0.1 mm 4 mps 753 mmHg 70%
11:00 +28°C° 0.1 mm 4 mps 753 mmHg 66%
12:00 +28°C° 0.5 mm 4 mps 752 mmHg 65%
13:00 +28°C° 0.5 mm 4 mps 752 mmHg 65%
14:00 +28°C° 0.5 mm 4 mps 752 mmHg 64%
15:00 +28°C° 0.4 mm 4 mps 751 mmHg 66%
16:00 +28°C° 0.4 mm 4 mps 751 mmHg 68%
17:00 +28°C° 0.4 mm 4 mps 751 mmHg 70%
18:00 +27°C° 0.1 mm 3 mps 751 mmHg 76%
19:00 +25°C° 0.1 mm 3 mps 751 mmHg 82%
20:00 +24°C° 0.1 mm 3 mps 751 mmHg 87%
21:00 +23°C° 0 mm 2 mps 751 mmHg 89%
22:00 +23°C° 0 mm 2 mps 751 mmHg 91%
23:00 +21°C° 0 mm 2 mps 751 mmHg 92%

21 June, Monday

Time Temperature Precipitation Wind Pressure Humidity
00:00 +20°C° 0 mm 3 mps 750 mmHg 93%
01:00 +20°C° 0 mm 3 mps 750 mmHg 93%
02:00 +19°C° 0 mm 3 mps 750 mmHg 93%
03:00 +19°C° 0 mm 3 mps 750 mmHg 93%
04:00 +18°C° 0 mm 3 mps 750 mmHg 93%
05:00 +18°C° 0 mm 2 mps 750 mmHg 93%
06:00 +20°C° 0 mm 3 mps 750 mmHg 88%
07:00 +21°C° 0 mm 3 mps 750 mmHg 83%
08:00 +23°C° 0 mm 4 mps 750 mmHg 78%
09:00 +25°C° 0 mm 4 mps 750 mmHg 72%
10:00 +26°C° 0 mm 5 mps 749 mmHg 67%
11:00 +27°C° 0 mm 5 mps 749 mmHg 62%
12:00 +27°C° 0 mm 5 mps 749 mmHg 61%
13:00 +28°C° 0 mm 5 mps 749 mmHg 59%
14:00 +28°C° 0 mm 5 mps 748 mmHg 58%
15:00 +28°C° 0.2 mm 4 mps 748 mmHg 61%
16:00 +28°C° 0.2 mm 4 mps 748 mmHg 64%
17:00 +27°C° 0.2 mm 4 mps 748 mmHg 67%
18:00 +26°C° 0.2 mm 3 mps 748 mmHg 73%
19:00 +25°C° 0.2 mm 3 mps 748 mmHg 79%
20:00 +24°C° 0.2 mm 3 mps 747 mmHg 85%
21:00 +22°C° 0 mm 3 mps 747 mmHg 87%
22:00 +21°C° 0 mm 3 mps 747 mmHg 90%
23:00 +20°C° 0 mm 3 mps 747 mmHg 92%

22 June, Tuesday

Time Temperature Precipitation Wind Pressure Humidity
00:00 +20°C° 0 mm 3 mps 747 mmHg 93%
01:00 +19°C° 0 mm 3 mps 747 mmHg 94%
02:00 +19°C° 0 mm 3 mps 747 mmHg 94%
03:00 +19°C° 0 mm 3 mps 747 mmHg 94%
04:00 +19°C° 0 mm 3 mps 747 mmHg 94%
05:00 +19°C° 0 mm 2 mps 747 mmHg 94%
06:00 +21°C° 0 mm 3 mps 747 mmHg 89%
07:00 +22°C° 0 mm 4 mps 748 mmHg 84%
08:00 +25°C° 0 mm 4 mps 748 mmHg 79%
09:00 +26°C° 0 mm 5 mps 748 mmHg 74%
10:00 +27°C° 0 mm 5 mps 748 mmHg 69%
11:00 +29°C° 0 mm 5 mps 748 mmHg 64%
12:00 +29°C° 0.1 mm 5 mps 748 mmHg 63%
13:00 +29°C° 0.1 mm 5 mps 748 mmHg 63%
14:00 +30°C° 0.1 mm 4 mps 748 mmHg 63%
15:00 +29°C° 0.2 mm 4 mps 748 mmHg 64%
16:00 +29°C° 0.2 mm 4 mps 748 mmHg 66%
17:00 +29°C° 0.2 mm 4 mps 748 mmHg 67%
18:00 +28°C° 0.1 mm 3 mps 748 mmHg 71%
19:00 +27°C° 0.1 mm 3 mps 748 mmHg 75%
20:00 +26°C° 0.1 mm 3 mps 748 mmHg 78%
21:00 +25°C° 0.1 mm 3 mps 749 mmHg 80%
22:00 +24°C° 0.1 mm 2 mps 749 mmHg 82%
23:00 +23°C° 0.1 mm 2 mps 749 mmHg 84%

23 June, Wednesday

Time Temperature Precipitation Wind Pressure Humidity
00:00 +23°C° 0 mm 2 mps 749 mmHg 85%
01:00 +22°C° 0 mm 1 mps 749 mmHg 87%
02:00 +22°C° 0 mm 1 mps 749 mmHg 89%
03:00 +22°C° 0 mm 1 mps 749 mmHg 89%
04:00 +21°C° 0 mm 2 mps 749 mmHg 89%
05:00 +21°C° 0 mm 2 mps 749 mmHg 89%
06:00 +24°C° 0 mm 2 mps 749 mmHg 85%
07:00 +25°C° 0 mm 3 mps 750 mmHg 81%
08:00 +27°C° 0 mm 3 mps 750 mmHg 76%
09:00 +28°C° 0 mm 3 mps 750 mmHg 72%
10:00 +29°C° 0 mm 3 mps 750 mmHg 68%
11:00 +30°C° 0 mm 4 mps 750 mmHg 64%
12:00 +32°C° 0 mm 4 mps 750 mmHg 60%
13:00 +32°C° 0 mm 4 mps 750 mmHg 57%
14:00 +33°C° 0 mm 4 mps 749 mmHg 53%
15:00 +32°C° 0 mm 4 mps 749 mmHg 55%
16:00 +32°C° 0 mm 4 mps 749 mmHg 57%
17:00 +32°C° 0 mm 4 mps 749 mmHg 59%
18:00 +29°C° 0.1 mm 3 mps 749 mmHg 65%
19:00 +28°C° 0.1 mm 3 mps 749 mmHg 72%
20:00 +26°C° 0.1 mm 3 mps 749 mmHg 79%
21:00 +25°C° 0.2 mm 3 mps 749 mmHg 81%
22:00 +22°C° 0.2 mm 3 mps 749 mmHg 83%
23:00 +21°C° 0.2 mm 3 mps 749 mmHg 86%
Show more